Starlink 6335

operational
NORAD ID: 56527 Int'l Des: 2023-065 Owner: SPXS Country: US Constellation: starlink
LEOCIRCULAR

About Starlink 6335

Description loading...

Live Position

Loading 3D Globe...

Upcoming Passes

Altitude History

Altitude vs Time

uPlot chart will show altitude changes over time

Two-Line Element Set

1 56527U 23065AA 26020.25210800 .00000269 00000-0 34973-4 0 9996
2 56527 43.0027 113.0849 0001283 276.6477 83.4219 15.02535559149340
Epoch: Jan 20, 2026 • Age: 13 hours

Current Status

Altitude 561.7 km
Velocity 7.59 km/s
Sub-Earth Point 37.48°N, 118.43°E
Launch Date May 14, 2023
Age 2.6 years
Type internet

Technical Details

Classification Payload
Mass 305.00 kg
Dry Mass 290.00 kg
Total Mass 305.00 kg
Length 0.20 m
Diameter 2.80 m
Span 9.00 m
Shape Box + pan
Manufacturer SPXS
Bus Type Starlink
Phase Status In Orbit
Owner/State SPXS/US

Large Constellations

Loading constellations...